[Iaude] MPEC U51: 2016 UZ5 [a=2.34,e=0.56,i=12.1,H=25.7]

mpec at si.edu mpec at si.edu
Sun Oct 23 13:52:09 EDT 2016


M.P.E.C. 2016-U51                                Issued 2016 Oct. 23, 17:46 UT
 
     The Minor Planet Electronic Circulars contain information on unusual
         minor planets and routine data on comets.  They are published
    on behalf of Division F of the International Astronomical Union by the
          Minor Planet Center, Smithsonian Astrophysical Observatory,
                          Cambridge, MA 02138, U.S.A.

             Prepared using the Tamkin Foundation Computer Network

                              MPC at CFA.HARVARD.EDU
            URL http://www.minorplanetcenter.net/    ISSN 1523-6714


                                   2016 UZ5
 
Observations:
     K16U05Z  C2016 10 21.36680 02 25 07.93 -02 09 09.6          19.1 VqEU051G96
     K16U05Z  C2016 10 21.37239 02 25 09.92 -02 06 42.9          19.4 VqEU051G96
     K16U05Z  C2016 10 21.38127 02 25 13.06 -02 02 51.2          20.3 VqEU051G96
     K16U05Z  C2016 10 21.38554 02 25 14.62 -02 00 58.5          20.3 VqEU051G96
     K16U05Z* C2016 10 21.42216 02 25 27.83 -01 45 01.4          19.8 VqEU051G96
     K16U05Z  C2016 10 21.42250 02 25 28.01 -01 44 51.5          20.0 VqEU051G96
     K16U05Z  C2016 10 21.42280 02 25 28.10 -01 44 43.8          20.1 VqEU051G96
     K16U05Z  C2016 10 21.42310 02 25 28.20 -01 44 35.7          19.9 VqEU051G96
     K16U05Z KC2016 10 22.05954 02 29 58.22 +02 48 00.3                qEU051J95
     K16U05Z KC2016 10 22.06911 02 30 01.61 +02 52 02.8                qEU051J95
     K16U05Z KC2016 10 22.07121 02 30 02.44 +02 52 55.0          19.2 RqEU051J95
     K16U05Z KC2016 10 22.10148 02 30 11.17 +03 05 58.9          19.1 RqEU051104
     K16U05Z KC2016 10 22.10451 02 30 12.19 +03 07 15.0          19.6 RqEU051104
     K16U05Z KC2016 10 22.10745 02 30 13.30 +03 08 30.4          19.9 RqEU051104
     K16U05Z  C2016 10 22.30282 02 31 40.95 +04 31 00.7          19.8 RoEU051926
     K16U05Z  C2016 10 22.30500 02 31 41.68 +04 31 55.1          19.9 RoEU051926
     K16U05Z  C2016 10 22.30718 02 31 42.40 +04 32 49.4          19.8 RoEU051926
     K16U05Z  C2016 10 22.32975 02 31 49.94 +04 42 10.3          19.6 VqEU051I52
     K16U05Z  C2016 10 22.33016 02 31 50.07 +04 42 20.1          19.4 VqEU051I52
     K16U05Z  C2016 10 22.33070 02 31 50.28 +04 42 33.8          19.6 VqEU051I52
     K16U05Z  C2016 10 22.33204 02 31 50.69 +04 43 07.6          19.2 VqEU051I52
     K16U05Z  C2016 10 22.43409 02 32 25.24 +05 25 23.4          19.7 RoEU051926
     K16U05Z  C2016 10 22.43626 02 32 25.99 +05 26 17.0          19.7 RoEU051926
     K16U05Z  C2016 10 22.43844 02 32 26.74 +05 27 10.7          19.8 RoEU051926
     K16U05Z KC2016 10 22.98559 02 36 12.67 +09 07 32.2                qEU051J95
     K16U05Z KC2016 10 22.98883 02 36 13.75 +09 08 48.8                qEU051J95
     K16U05Z KC2016 10 22.99224 02 36 14.93 +09 10 09.9          19.7 RqEU051J95
     K16U05Z  C2016 10 23.37526 02 38 38.11 +11 39 53.4          19.6 VqEU051G96
     K16U05Z  C2016 10 23.37567 02 38 38.25 +11 40 02.8          19.7 VqEU051G96
     K16U05Z  C2016 10 23.37617 02 38 38.40 +11 40 14.3          19.6 VqEU051G96
     K16U05Z  C2016 10 23.37714 02 38 38.73 +11 40 35.9          19.7 VqEU051G96
 
Observer details:
104 San Marcello Pistoiese.  Observers P. Bacci, M. Maestripieri.  Measurers
    P. Bacci, L. Tesi, G. Fagioli.  0.60-m f/4 reflector + CCD.
926 Tenagra II Observatory.  Observers M. Schwartz, P. R. Holvorcem.  Measurer
    M. Schwartz.  0.81-m f/7 Ritchey-Chretien + CCD.
G96 Mt. Lemmon Survey.  Observers R. A. Kowalski, R. G. Matheny.  Measurers
    E. J. Christensen, D. C. Fuls, A. R. Gibbs, A. D. Grauer, J. A. Johnson,
    R. A. Kowalski, S. M. Larson, G. J. Leonard, R. G. Matheny, R. L. Seaman,
    F. C. Shelly.  1.5-m reflector + 10K CCD.
I52 Steward Observatory, Mt. Lemmon Station.  Observer A. R. Gibbs.  Measurers
    E. J. Christensen, D. C. Fuls, A. R. Gibbs, A. D. Grauer, J. A. Johnson,
    R. A. Kowalski, S. M. Larson, G. J. Leonard, R. G. Matheny, R. L. Seaman,
    F. C. Shelly.  1.0-m reflector + CCD.
J95 Great Shefford.  Observer P. Birtwhistle.  0.40-m f/6.0 Schmidt-Cassegrain
    + CCD.
 
Orbital elements:
2016 UZ5                                                 Earth MOID = 0.0426 AU
Epoch 2016 July 31.0 TT = JDT 2457600.5                 MPC
M 340.05265              (2000.0)            P               Q
n   0.27457142     Peri.  345.48846     +0.95390502     -0.27945312
a   2.3444042      Node    31.41121     +0.29200618     +0.78012527
e   0.5606548      Incl.   12.11850     +0.06926472     +0.55974147
P   3.59           H   25.7           G   0.15           U   7
Residuals in seconds of arc
161021 G96  0.2+  0.1+    161022 104  1.1+  0.0     161022 926  0.2-  0.3+
161021 G96  0.2+  0.3+    161022 104  0.1-  0.5-    161022 926  0.3-  0.1+
161021 G96  0.3-  0.5-    161022 104  0.4+  0.6+    161022 J95  0.1+  0.2+
161021 G96  0.1+  0.4+    161022 926  0.0   0.3+    161022 J95  0.3-  0.2-
161021 G96  0.5-  0.8-    161022 926  0.0   0.2+    161022 J95  0.0   0.1-
161021 G96  0.3+  0.3+    161022 926  0.1-  0.0     161023 G96  0.2+  0.1+
161021 G96  0.0   0.1+    161022 I52  0.0   0.4+    161023 G96  0.3+  0.1+
161021 G96  0.1-  0.4+    161022 I52  0.1-  0.0     161023 G96  0.2+  0.2+
161022 J95  0.2+  0.2+    161022 I52  0.3+  0.2+    161023 G96  0.5+  0.4-
161022 J95  0.7-  0.2+    161022 I52  0.2-  0.6+
161022 J95  0.4+  0.8-    161022 926  0.1-  0.3+

Ephemeris:
2016 UZ5                 a,e,i = 2.34, 0.56, 12                  q = 1.0300
Date    TT    R. A. (2000) Decl.     Delta      r     Elong.  Phase     V
2016 09 23    22 22 54.6 -72 49 50   0.1578  1.0566   105.5    66.2    24.1
...
2016 10 08    00 25 03.9 -63 28 05   0.08300 1.0310   110.4    65.2    22.7
...
2016 10 16    01 42 11.0 -38 16 57   0.05018 1.0315   132.7    45.3    21.0
...
2016 10 22    02 29 35.3 +02 24 56   0.04436 1.0383   166.4    13.1    19.8
2016 10 23    02 36 16.0 +09 15 03   0.04596 1.0400   168.6    10.9    19.8
2016 10 24    02 42 35.5 +15 31 43   0.04823 1.0418   167.7    11.7    19.9
...
2016 10 30    03 13 33.9 +40 20 14   0.07125 1.0558   150.8    27.4    21.3
...
2016 11 07    03 39 36.7 +53 08 03   0.1130  1.0821   141.8    34.5    22.6
...
2016 11 22    04 00 48.4 +59 06 44   0.2020  1.1516   141.0    32.7    23.9

A. U. Tomatic                (C) Copyright 2016 MPC           M.P.E.C. 2016-U51




More information about the Iaude mailing list